HK5VD-30 Weather Reports


Display with metric or nautical units.
time (UTC)temp
F
wind
direction
speed
MPH
gust
MPH
rain 1hr
in
rain 24hr
in
rain mn
in
humidity
%
barometer
mb
20260503170259 80 0 2.0 0.0 0.00 0.00 0.00 94 1012.0
20260503150255 76 0 2.0 0.0 0.00 0.00 0.00 94 1015.0
20260503140253 74 0 2.0 0.0 0.00 0.00 0.00 94 1015.0
20260503130251 72 0 1.0 0.0 0.00 0.00 0.00 94 1015.0
20260503110247 71 150 2.0 0.0 0.00 0.00 0.00 94 1014.0
20260503100245 69 130 2.0 0.0 0.00 0.00 0.00 94 1013.0
20260503090243 71 0 1.0 0.0 0.00 0.00 0.00 94 1013.0
20260503080241 69 140 2.0 0.0 0.00 0.00 0.00 94 1014.0
20260503070239 71 160 3.0 0.0 0.00 0.00 0.00 10 1014.0
20260503060237 69 160 3.0 0.0 0.00 0.00 0.00 10 1014.0
20260503053236 72 130 2.0 0.0 0.00 0.00 0.00 10 1014.0
20260503050235 71 0 2.0 0.0 0.00 0.00 0.00 10 1015.0
20260503043234 70 0 2.0 0.0 0.00 0.00 0.00 10 1015.0
20260503040233 69 10 2.0 0.0 0.00 0.00 0.00 10 1015.0
20260503033232 73 30 3.0 0.0 0.00 0.00 0.00 94 1015.0
20260503030231 72 30 3.0 0.0 0.00 0.00 0.00 94 1015.0
20260503023230 71 30 3.0 0.0 0.00 0.00 0.00 94 1015.0
20260503020229 74 20 5.0 0.0 0.00 0.00 0.00 88 1014.0
20260503013228 73 20 5.0 0.0 0.00 0.00 0.00 88 1013.0
20260503010227 72 20 5.0 0.0 0.00 0.00 0.00 88 1013.0
20260503000226 71 20 6.0 0.0 0.00 0.00 0.00 88 1013.0
20260502233223 77 350 10.0 0.0 0.01 0.00 0.00 73 1012.0
20260502230222 80 320 13.0 0.0 0.00 0.00 0.00 61 1012.0
20260502223220 80 320 13.0 0.0 0.00 0.00 0.00 61 1012.0
20260502213218 82 320 12.0 0.0 0.00 0.00 0.00 61 1011.0
20260502210217 86 360 11.0 0.0 0.00 0.00 0.00 54 1010.0
20260502203216 86 360 11.0 0.0 0.00 0.00 0.00 54 1010.0
20260502200215 84 350 6.0 0.0 0.00 0.00 0.00 58 1010.0
20260502193214 84 350 6.0 0.0 0.00 0.00 0.00 58 1010.0
20260502190213 82 350 5.0 0.0 0.00 0.00 0.00 61 1011.0
20260502183212 81 350 5.0 0.0 0.00 0.00 0.00 83 1011.0
20260502180211 80 360 5.0 0.0 0.00 0.00 0.00 83 1011.0